Time,TemperatureF,DewpointF,PressureIn,WindDirection,WindDirectionDegrees,WindSpeedMPH,WindSpeedGustMPH,Humidity,HourlyPrecipIn,Conditions,Clouds,dailyrainin,SoftwareType,DateUTC
2013-03-15 00:05:00,29.5,25.2,30.09,SW,226,2.4,4.0,78,0.00,NA,NA,0.01,meteo_script,2013-03-15 05:05:00,
2013-03-15 00:35:00,29.1,25.1,30.07,SSW,209,2.1,3.0,79,0.00,NA,NA,0.00,meteo_script,2013-03-15 05:35:00,
2013-03-15 01:05:00,28.8,24.8,30.06,SW,219,2.5,4.0,79,0.00,NA,NA,0.00,meteo_script,2013-03-15 06:05:00,
2013-03-15 01:35:00,28.6,24.8,30.04,SW,228,3.9,6.0,80,0.00,NA,NA,0.00,meteo_script,2013-03-15 06:35:00,
2013-03-15 02:05:00,28.3,24.7,30.04,SW,233,2.6,4.0,81,0.00,NA,NA,0.00,meteo_script,2013-03-15 07:05:00,
2013-03-15 02:35:00,28.3,24.7,30.03,SW,219,3.0,4.0,81,0.00,NA,NA,0.00,meteo_script,2013-03-15 07:35:00,
2013-03-15 03:05:00,28.5,25.1,30.02,SW,225,2.3,3.0,81,0.00,NA,NA,0.00,meteo_script,2013-03-15 08:05:00,
2013-03-15 03:35:00,28.8,25.2,30.01,SW,231,2.0,3.0,81,0.00,NA,NA,0.00,meteo_script,2013-03-15 08:35:00,
2013-03-15 04:05:00,29.0,25.4,30.00,SW,220,0.6,2.0,81,0.00,NA,NA,0.00,meteo_script,2013-03-15 09:05:00,
2013-03-15 04:35:00,29.0,25.4,29.99,WSW,250,2.9,5.0,81,0.00,NA,NA,0.00,meteo_script,2013-03-15 09:35:00,
2013-03-15 05:05:00,29.1,25.5,29.98,SSW,210,0.5,2.0,81,0.00,NA,NA,0.00,meteo_script,2013-03-15 10:05:00,
2013-03-15 05:35:00,28.9,25.1,29.97,SSW,210,1.6,3.0,80,0.00,NA,NA,0.00,meteo_script,2013-03-15 10:35:00,
2013-03-15 06:05:00,28.8,25.0,29.96,North,0,0.0,0.0,80,0.00,NA,NA,0.00,meteo_script,2013-03-15 11:05:00,
2013-03-15 06:35:00,29.1,25.3,29.96,SSW,210,0.0,1.0,80,0.00,NA,NA,0.00,meteo_script,2013-03-15 11:35:00,
2013-03-15 07:05:00,29.4,25.6,29.97,North,0,0.0,0.0,80,0.00,NA,NA,0.00,meteo_script,2013-03-15 12:05:00,
2013-03-15 07:35:00,29.9,26.3,29.97,SSW,213,0.1,1.0,81,0.00,NA,NA,0.00,meteo_script,2013-03-15 12:35:00,
2013-03-15 08:05:00,30.1,26.3,29.96,SW,217,0.1,1.0,80,0.00,NA,NA,0.00,meteo_script,2013-03-15 13:05:00,
2013-03-15 08:35:00,30.8,26.9,29.97,West,277,1.4,3.0,80,0.00,NA,NA,0.00,meteo_script,2013-03-15 13:35:00,
2013-03-15 09:05:00,32.1,27.8,29.96,West,281,0.1,1.0,78,0.00,NA,NA,0.00,meteo_script,2013-03-15 14:05:00,
2013-03-15 09:35:00,33.4,28.6,29.95,North,0,0.0,0.0,76,0.00,NA,NA,0.00,meteo_script,2013-03-15 14:35:00,
2013-03-15 10:05:00,34.7,29.1,29.95,North,0,0.0,0.0,73,0.00,NA,NA,0.00,meteo_script,2013-03-15 15:05:00,
2013-03-15 10:35:00,35.7,29.3,29.94,NNE,19,1.2,3.0,70,0.00,NA,NA,0.00,meteo_script,2013-03-15 15:35:00,
2013-03-15 11:05:00,36.3,29.4,29.94,NNE,29,1.4,3.0,68,0.00,NA,NA,0.00,meteo_script,2013-03-15 16:05:00,
2013-03-15 11:35:00,36.8,30.2,29.94,NNE,27,0.3,2.0,69,0.02,NA,NA,0.01,meteo_script,2013-03-15 16:35:00,
2013-03-15 12:05:00,37.9,31.5,29.93,NNE,28,0.1,1.0,70,0.00,NA,NA,0.01,meteo_script,2013-03-15 17:05:00,
2013-03-15 12:35:00,38.3,31.8,29.93,North,0,0.0,0.0,70,0.02,NA,NA,0.02,meteo_script,2013-03-15 17:35:00,
2013-03-15 13:05:00,37.3,31.9,29.93,NNE,30,0.1,1.0,73,0.06,NA,NA,0.05,meteo_script,2013-03-15 18:05:00,
2013-03-15 13:35:00,37.1,32.1,29.93,North,0,0.0,0.0,76,0.12,NA,NA,0.11,meteo_script,2013-03-15 18:35:00,
2013-03-15 14:05:00,37.0,32.0,29.93,NNE,30,0.3,2.0,76,0.08,NA,NA,0.15,meteo_script,2013-03-15 19:05:00,
2013-03-15 14:35:00,37.7,32.7,29.92,NNE,28,0.0,1.0,76,0.06,NA,NA,0.18,meteo_script,2013-03-15 19:35:00,
2013-03-15 15:05:00,36.8,32.3,29.90,North,0,0.0,0.0,78,0.04,NA,NA,0.20,meteo_script,2013-03-15 20:05:00,
2013-03-15 15:35:00,36.4,32.0,29.89,North,0,0.0,0.0,78,0.02,NA,NA,0.21,meteo_script,2013-03-15 20:35:00,
2013-03-15 16:05:00,36.5,32.0,29.87,NE,50,0.2,2.0,78,0.00,NA,NA,0.21,meteo_script,2013-03-15 21:05:00,
2013-03-15 16:35:00,37.0,32.5,29.86,ENE,67,1.4,5.0,78,0.00,NA,NA,0.21,meteo_script,2013-03-15 21:35:00,
2013-03-15 17:05:00,36.4,31.7,29.84,ENE,68,3.5,6.0,76,0.00,NA,NA,0.21,meteo_script,2013-03-15 22:05:00,
2013-03-15 17:35:00,35.7,31.5,29.84,ENE,75,2.5,5.0,79,0.00,NA,NA,0.21,meteo_script,2013-03-15 22:35:00,
2013-03-15 18:05:00,35.1,30.9,29.86,North,0,0.0,0.0,79,0.00,NA,NA,0.21,meteo_script,2013-03-15 23:05:00,
2013-03-15 18:35:00,35.2,31.2,29.87,North,0,0.0,0.0,80,0.00,NA,NA,0.21,meteo_script,2013-03-15 23:35:00,
2013-03-15 19:05:00,35.1,31.3,29.87,ENE,77,0.2,1.0,81,0.00,NA,NA,0.21,meteo_script,2013-03-16 00:05:00,
2013-03-15 19:35:00,35.0,31.2,29.87,ENE,78,0.7,3.0,81,0.00,NA,NA,0.21,meteo_script,2013-03-16 00:35:00,
2013-03-15 20:05:00,34.8,31.0,29.88,North,0,0.0,0.0,81,0.00,NA,NA,0.21,meteo_script,2013-03-16 01:05:00,
2013-03-15 20:35:00,34.5,30.7,29.88,East,79,0.1,1.0,81,0.00,NA,NA,0.21,meteo_script,2013-03-16 01:35:00,
2013-03-15 21:05:00,34.4,30.7,29.87,ENE,66,2.1,5.0,81,0.00,NA,NA,0.21,meteo_script,2013-03-16 02:05:00,
2013-03-15 21:35:00,33.5,29.8,29.85,ENE,71,1.9,4.0,81,0.00,NA,NA,0.21,meteo_script,2013-03-16 02:35:00,
2013-03-15 22:05:00,32.8,29.1,29.85,ENE,75,3.5,5.0,81,0.00,NA,NA,0.21,meteo_script,2013-03-16 03:05:00,
2013-03-15 22:35:00,32.3,28.6,29.84,ENE,65,3.1,9.0,81,0.00,NA,NA,0.21,meteo_script,2013-03-16 03:35:00,
2013-03-15 23:05:00,32.0,28.1,29.84,East,83,3.3,6.0,80,0.00,NA,NA,0.21,meteo_script,2013-03-16 04:05:00,
2013-03-15 23:35:00,31.7,27.6,29.83,ENE,64,1.9,3.0,79,0.00,NA,NA,0.21,meteo_script,2013-03-16 04:35:00,